Tracking 29892 objects as of 21-Nov-2024
HD Live streaming from Space Station
objects crossing your sky now

STARLINK-30227

Track STARLINK-30227 now!
10-day predictions
STARLINK-30227 is classified as:


NORAD ID: 57505
Int'l Code: 2023-113L
Perigee: 565.4 km
Apogee: 567.0 km
Inclination: 43.0 °
Period: 95.8 minutes
Semi major axis: 6937 km
RCS: Unknown
Launch date: August 7, 2023
Source: United States (US)
Launch site: AIR FORCE EASTERN TEST RANGE (AFETR)
Your satellite tracking list
Your tracking list is empty




NASA's NSSDC Master Catalog

Two Line Element Set (TLE):
1 57505U 23113L   24325.74404080 -.00000915  00000-0 -52661-4 0  9996
2 57505  43.0040  59.8498 0001116 254.0669 106.0050 15.02536582 72513
Source of the keplerian elements: AFSPC